Location: *
(2.5500°S, 65.9667°W)
Time: 18:23:59
(UTC+00:00)

SR - All Passes

Search period start: 19 April 2024 00:00
Search period end: 29 April 2024 00:00
Orbit: 577 x 863 km, 66.7° (Epoch: 18 April)

Date Brightness Start Highest point End Pass type
(mag) Time Alt. Az. Time Alt. Az. Time Alt. Az.
19 Apr - 03:43:31 10° SSE 03:47:43 20° ESE 03:51:53 10° ENE night (unlit)
19 Apr - 05:24:18 10° SW 05:29:26 32° WNW 05:34:29 10° N night (unlit)
19 Apr - 16:10:08 10° NNE 16:13:41 27° ENE 16:17:19 10° SE daylight
19 Apr - 17:54:15 10° W 17:55:19 11° WSW 17:56:23 10° SW daylight
20 Apr - 04:31:35 10° SSW 04:37:27 82° WNW 04:43:10 10° NNE night (unlit)
20 Apr - 16:59:24 10° NW 17:03:13 34° WSW 17:07:10 10° S daylight
21 Apr - 03:40:00 10° S 03:45:24 39° ESE 03:50:43 10° NE night (unlit)
21 Apr - 05:23:31 10° WSW 05:27:02 16° WNW 05:30:31 10° NNW night (unlit)
21 Apr - 16:07:04 10° NNW 16:11:13 66° ENE 16:15:30 10° SSE daylight
22 Apr - 02:49:56 10° SSE 02:53:17 16° ESE 02:56:37 10° ENE night (unlit)
22 Apr - 04:29:35 10° SW 04:35:03 42° WNW 04:40:23 10° N night (unlit)
22 Apr - 15:16:12 10° NNE 15:19:15 19° ENE 15:22:21 10° ESE daylight
22 Apr - 16:58:20 10° WNW 17:00:49 15° WSW 17:03:22 10° SSW daylight
23 Apr - 03:37:11 10° SSW 03:43:01 77° ESE 03:48:44 10° NNE night (unlit)
23 Apr - 16:04:41 10° NW 16:08:44 49° WSW 16:12:57 10° S daylight
24 Apr - 02:45:53 10° S 02:50:56 30° ESE 02:55:54 10° NE night (unlit)
24 Apr - 04:28:16 10° WSW 04:32:35 21° WNW 04:36:50 10° NNW night (unlit)
24 Apr - 15:12:43 10° N 15:16:44 46° ENE 15:20:52 10° SE daylight
25 Apr - 01:56:50 10° SE 01:58:45 12° ESE 02:00:40 10° E night (unlit)
25 Apr - 03:34:53 10° SSW 03:40:34 55° WNW 03:46:07 10° N night (unlit)
25 Apr - 14:22:30 10° NE 14:24:45 14° ENE 14:27:01 10° ESE daylight
25 Apr - 16:03:04 10° WNW 16:06:16 21° WSW 16:09:35 10° SSW daylight
26 Apr - 02:42:45 10° S 02:48:31 59° ESE 02:54:07 10° NNE night (unlit)
26 Apr - 04:29:34 10° WNW 04:30:06 10° WNW 04:30:38 10° WNW night (unlit)
26 Apr - 15:10:01 10° NNW 15:14:10 71° WSW 15:18:31 10° SSE daylight
27 Apr - 01:51:49 10° SSE 01:56:22 23° ESE 02:00:51 10° ENE night (unlit)
27 Apr - 03:33:11 10° SW 03:38:04 28° WNW 03:42:50 10° NNW night (unlit)
27 Apr - 14:18:24 10° N 14:22:09 32° ENE 14:26:02 10° SE daylight
28 Apr - 02:40:12 10° SSW 02:46:01 72° WNW 02:51:40 10° NNE night (unlit)
28 Apr - 15:07:57 10° NW 15:11:38 29° WSW 15:15:27 10° S daylight
